User: anonymous   Login
Location: Unspecified
(0.0000°N, 0.0000°E)
Time: 22:17:31
(UTC+00:00)
Language:

JUGNU - Orbit

View from above orbital plane
View from above orbital plane
View from above satellite
View from above satellite

Ground track
Ground track

The orbit data is extracted from the following two-line orbital elements,

1 37839U 11058B   24052.31809550  .00000619  00000-0  18575-3 0  9994
2 37839  19.9619  51.2155 0019000  87.3981 302.6773 14.13125362639174
Epoch (UTC): 21 February 2024 07:38:03
Eccentricity: 0.0019000
inclination: 19.9619°
perigee height: 835 km
apogee height: 862 km
right ascension of ascending node: 51.2155°
argument of perigee: 87.3981°
revolutions per day: 14.13125362
mean anomaly at epoch: 302.6773°
orbit number at epoch: 63917

The dashed part of the orbit path shows where the satellite is in the earth's shadow,  

DLR